This is the latest recevied weather packets stored in our database for station/object OE6JUE. If no packets are shown the sender has not sent any weather packets the latest 10 day(s).
| Time | Temp. | Humidity | Pressure | Rain* | Wind** | Luminosity | Snow |
|---|---|---|---|---|---|---|---|
| 1787923412 | 30.56° C | 44% | 1015.6 hPa | 0 mm | - | - | - |
| 1787923113 | 30.56° C | 45% | 1015.4 hPa | 0 mm | - | - | - |
| 1787922811 | 31.11° C | 44% | 1015.2 hPa | 0 mm | - | - | - |
| 1787922512 | 31.67° C | 44% | 1015.5 hPa | 0 mm | - | - | - |
| 1787922212 | 31.11° C | 45% | 1015.5 hPa | 0 mm | - | - | - |
| 1787921911 | 30.56° C | 45% | 1015.6 hPa | 0 mm | - | - | - |
| 1787921612 | 30.56° C | 45% | 1015.6 hPa | 0 mm | - | - | - |
| 1787921312 | 30.56° C | 45% | 1015.6 hPa | 0 mm | - | - | - |
| 1787921012 | 30° C | 46% | 1015.7 hPa | 0 mm | - | - | - |
| 1787920711 | 29.44° C | 45% | 1015.6 hPa | 0 mm | - | - | - |
| 1787920411 | 29.44° C | 46% | 1015.8 hPa | 0 mm | - | - | - |
| 1787920112 | 29.44° C | 45% | 1016 hPa | 0 mm | - | - | - |
| 1787919812 | 30° C | 44% | 1016 hPa | 0 mm | - | - | - |
| 1787919512 | 29.44° C | 46% | 1016.1 hPa | 0 mm | - | - | - |
| 1787919220 | 29.44° C | 47% | 1016.2 hPa | 0 mm | - | - | - |
| 1787918911 | 29.44° C | 47% | 1016.3 hPa | 0 mm | - | - | - |
| 1787918612 | 29.44° C | 47% | 1016.3 hPa | 0 mm | - | - | - |
| 1787918312 | 28.33° C | 47% | 1016.3 hPa | 0 mm | - | - | - |
| 1787918012 | 28.89° C | 45% | 1016.6 hPa | 0 mm | - | - | - |
| 1787917712 | 29.44° C | 46% | 1016.7 hPa | 0 mm | - | - | - |
| 1787917411 | 28.89° C | 46% | 1016.4 hPa | 0 mm | - | - | - |
| 1787917112 | 28.33° C | 47% | 1016.7 hPa | 0 mm | - | - | - |
| 1787916812 | 27.78° C | 50% | 1016.4 hPa | 0 mm | - | - | - |
| 1787916511 | 27.78° C | 48% | 1016.5 hPa | 0 mm | - | - | - |
| 1787916211 | 27.78° C | 47% | 1016.6 hPa | 0 mm | - | - | - |
* Rain latest hour (hover to see other rain measurements)
** Current wind speed in m/s (hover to see current wind gust speed)